"Pseudo-MPEC" for P215KYR

Created 2020 Sep 16 20:07:51 UT using Find_Orb

Click here for an explanation of pseudo-MPECs

 
 Astrometry: 
     P215KYR  C2020 09 134_*E@H1$*SA#[bJ:$C!(xU`-qWjx/X.wrlCln.pSa8VC7X$l:VHTF52
     P215KYR  C2020 09 13c?2Tqu2Ys^%Pt$GM?9]m=S%AF@Rnt;g`I9\\rAstrometryUtRKKF52
     P215KYR  C2020 09 13LOrSHe6eXS7OW'2RvTlFmN\?]Vq.'w7SP`r@K*NCB#by^N+4\xZ)F52
     P215KYR  C2020 09 13pIdMtL.Ldb$4w)?KLa(h:fqFTSx5]$_`h24;A`Y]c]q`@jelQm5lF52
     P215KYR  C2020 09 143,lg9jVvn6]redacted;(KxI11`tn244clickSZ.FIYUl!o\WEPsF51
     P215KYR  C2020 09 14\g-?%P@mx,[2.5G5ppopOR'N]!0JWqj6jtV]sr_K-,ACWll7.@aCF51
     P215KYR  C2020 09 14nxx%H/PlF@gVW:sPyx7`s4=e.NvNi@Bg!iNR\NL#**=WZpUqVO`MF51
     P215KYR  C2020 09 14nf[vcce],,Uav]mX1here@5pJRM^)/Y2o,Z6BWS+B67OESK)F]:fF51
     P215KYR  C2020 09 16L0jX^(ZA89--FgwBDPMg@?pfruor2c9^t)22v-$6:e6'cXLform_F51
     P215KYR  C2020 09 16m4$=TP8#I$fbb`E$LWY[jsGZUd8[WR(EVEya70;iL#)q[0)5i=?:F51
     P215KYR  C2020 09 16L)--;_5`oZ`VK@f_FCirXS!mvsMexplanation99h?vuL7Zax)u8F51
     P215KYR  C2020 09 16`.Zfn'c]yAjTifM@^E=YL.mg`w=R7=aq^URGlQC\_2Hg((-g($TgF51

Station data:
(F51) Pan-STARRS 1, Haleakala  (N20.707235 W156.255910)  US/Hawaii.
   Observers N. Primak, A. Schultz, S. Watters, J. Thiel, T. Goggia. Measurer
   PS1 Science Consortium. 1.8-m Ritchey-Chrétien + CCD.
(F52) Pan-STARRS 2, Haleakala  (N20.707384 W156.255910)  US/Hawaii. 1.8-m
   Ritchey-Chrétien + CCD.

Orbital elements:  P215KYR
   Perihelion 2020 Jun 28.160996 +/- 123 TT =  3:51:50 (JD 2459028.660996)
Epoch 2020 Sep 16.0 TT = JDT 2459108.5   Ju: 0.0735           AutoNEOCP
M   8.44023341 +/- 14               (J2000 ecliptic)
n   0.10571566 +/- 0.012            Peri.  181.14292 +/- 20
a   4.42972211 +/- 0.335            Node   221.75829 +/- 0.49
e   0.2077777 +/- 0.0402            Incl.   72.19938 +/- 1.1
P   9.32                   H 15.9   G  0.15   U  9.8  
q 3.50932451 +/- 0.0834    Q 5.35011971 +/- 0.528
From 12 observations 2020 Sept. 13-16; mean residual 0".09
Residuals in arcseconds: 
200913 F52  .21+  .06-    200914 F51  .03-  .02-    200916 F51  .06-  .05+    
200913 F52  .16-  .21-    200914 F51  .01+  .05+    200916 F51  .03+  .07-    
200913 F52  .06+  .21+    200914 F51  .01+  .02+    200916 F51  .01-  .05+    
200913 F52  .11-  .07+    200914 F51  .01+  .06-    200916 F51  .03+  .02-    

Ephemerides (geocentric):
Date (UTC) HH   RA              Dec         delta   r     elong  mag " sig PA
---- -- -- --  -------------   -----------  ------ ------ -----  --- ---- ---
2020 09 16 20  04 12 19.295   +04 54 26.91  3.0350 3.5255 111.2 21.9 .191  92
2020 09 16 21  04 12 19.191   +04 53 47.43  3.0344 3.5255 111.2 21.9 .210  92
2020 09 16 22  04 12 19.085   +04 53 07.94  3.0339 3.5255 111.3 21.9 .230  92
2020 09 16 23  04 12 18.978   +04 52 28.44  3.0333 3.5255 111.3 21.9 .250  92
2020 09 17 00  04 12 18.867   +04 51 48.91  3.0328 3.5255 111.4 21.9 .270  91
2020 09 17 01  04 12 18.755   +04 51 09.37  3.0322 3.5255 111.4 21.9 .291  91
2020 09 17 02  04 12 18.641   +04 50 29.81  3.0316 3.5256 111.4 21.9 .313  91
2020 09 17 03  04 12 18.524   +04 49 50.24  3.0311 3.5256 111.5 21.9 .335  91
2020 09 17 04  04 12 18.406   +04 49 10.65  3.0305 3.5256 111.5 21.9 .357  91
2020 09 17 05  04 12 18.285   +04 48 31.04  3.0300 3.5256 111.6 21.9 .380  91
2020 09 17 06  04 12 18.162   +04 47 51.41  3.0294 3.5256 111.6 21.9 .404  91
2020 09 17 07  04 12 18.037   +04 47 11.77  3.0288 3.5256 111.6 21.9 .427  91
2020 09 17 08  04 12 17.910   +04 46 32.11  3.0283 3.5257 111.7 21.9 .452  91
2020 09 17 09  04 12 17.780   +04 45 52.43  3.0277 3.5257 111.7 21.9 .476  91
2020 09 17 10  04 12 17.649   +04 45 12.74  3.0272 3.5257 111.8 21.9 .502  91
2020 09 17 11  04 12 17.515   +04 44 33.03  3.0266 3.5257 111.8 21.9 .527  91
2020 09 17 12  04 12 17.379   +04 43 53.30  3.0261 3.5257 111.9 21.9 .553  91
2020 09 17 13  04 12 17.241   +04 43 13.56  3.0255 3.5257 111.9 21.9 .580  90
2020 09 17 14  04 12 17.101   +04 42 33.79  3.0249 3.5258 111.9 21.9 .607  90
2020 09 17 15  04 12 16.959   +04 41 54.02  3.0244 3.5258 112.0 21.9 .635  90
2020 09 17 16  04 12 16.814   +04 41 14.22  3.0238 3.5258 112.0 21.9 .663  90
2020 09 17 17  04 12 16.667   +04 40 34.41  3.0233 3.5258 112.1 21.9 .691  90
2020 09 17 18  04 12 16.519   +04 39 54.58  3.0227 3.5258 112.1 21.9 .720  90
2020 09 17 19  04 12 16.368   +04 39 14.73  3.0222 3.5258 112.1 21.9 .750  90
2020 09 17 20  04 12 16.214   +04 38 34.87  3.0216 3.5259 112.2 21.9 .780  90
2020 09 17 21  04 12 16.059   +04 37 54.99  3.0210 3.5259 112.2 21.9 .810  90
2020 09 17 22  04 12 15.902   +04 37 15.09  3.0205 3.5259 112.3 21.9 .841  90
2020 09 17 23  04 12 15.742   +04 36 35.18  3.0199 3.5259 112.3 21.9 .872  90
2020 09 18 00  04 12 15.580   +04 35 55.25  3.0194 3.5259 112.3 21.9 .904  90
2020 09 18 01  04 12 15.416   +04 35 15.30  3.0188 3.5260 112.4 21.9 .936  90
2020 09 18 02  04 12 15.250   +04 34 35.33  3.0183 3.5260 112.4 21.9 .969  90
2020 09 18 03  04 12 15.082   +04 33 55.35  3.0177 3.5260 112.5 21.9 1.00  90
2020 09 18 04  04 12 14.911   +04 33 15.36  3.0172 3.5260 112.5 21.9 1.04  90
2020 09 18 05  04 12 14.739   +04 32 35.34  3.0166 3.5260 112.5 21.9 1.07  90
2020 09 18 06  04 12 14.564   +04 31 55.31  3.0161 3.5260 112.6 21.9 1.10  90
2020 09 18 07  04 12 14.387   +04 31 15.26  3.0155 3.5261 112.6 21.9 1.14  90
2020 09 18 08  04 12 14.208   +04 30 35.19  3.0150 3.5261 112.7 21.9 1.18  90
2020 09 18 09  04 12 14.027   +04 29 55.11  3.0144 3.5261 112.7 21.9 1.21  90
2020 09 18 10  04 12 13.843   +04 29 15.01  3.0138 3.5261 112.7 21.9 1.25  90
2020 09 18 11  04 12 13.658   +04 28 34.90  3.0133 3.5261 112.8 21.9 1.28  90
2020 09 18 12  04 12 13.470   +04 27 54.77  3.0127 3.5261 112.8 21.9 1.32  90
2020 09 18 13  04 12 13.280   +04 27 14.62  3.0122 3.5262 112.9 21.9 1.36  90
2020 09 18 14  04 12 13.088   +04 26 34.45  3.0116 3.5262 112.9 21.9 1.40  90
2020 09 18 15  04 12 12.893   +04 25 54.27  3.0111 3.5262 112.9 21.9 1.44  90
2020 09 18 16  04 12 12.697   +04 25 14.07  3.0105 3.5262 113.0 21.9 1.48  90
2020 09 18 17  04 12 12.498   +04 24 33.85  3.0100 3.5262 113.0 21.9 1.52  90
2020 09 18 18  04 12 12.298   +04 23 53.62  3.0094 3.5262 113.1 21.9 1.56  90
2020 09 18 19  04 12 12.095   +04 23 13.37  3.0089 3.5263 113.1 21.9 1.60  90